Lid_Strength_Index
9 8 8 8 8 8 8 8 9 9 9 9 10 11 11 11 12 12 11 10 10 9 8 7 7 7 8 9 9 9 9 9
9 9 8 7 7 7 8 8 8 8 8 9 9 10 10 11 12 12 12 12 12 11 10 9 9 8 8 9 9 10 9 9
8 8 7 7 7 7 7 7 8 8 8 9 9 10 10 11 11 12 12 12 11 10 11 10 10 9 9 9 9 10 10 10
8 7 7 8 8 8 9 9 9 9 8 9 10 11 12 12 12 13 12 12 12 11 11 11 11 10 10 10 9 9 9 9
9 8 8 8 8 9 9 9 10 10 10 11 10 10 11 13 14 15 14 14 13 13 13 12 11 10 10 10 10 10 10 10
9 9 8 8 9 10 10 10 10 12 12 13 12 12 12 13 15 15 16 16 17 15 14 14 12 10 10 10 10 10 11 11
9 8 8 9 10 11 12 12 11 14 16 16 15 14 14 14 15 15 16 16 17 17 16 14 12 9 9 9 10 10 11 11
12 12 9 13 11 14 14 12 14 14 15 15 15 15 15 16 16 15 15 16 17 17 16 16 14 10 9 9 11 11 11 11
14 15 14 13 14 14 14 15 14 14 14 14 14 15 14 15 16 17 17 16 15 15 16 15 13 9 8 8 10 11 10 10
19 18 19 17 16 17 16 18 16 15 14 14 15 15 15 15 15 15 16 15 14 14 14 14 14 10 8 9 11 11 11 10
19 20 18 17 16 14 15 17 16 15 14 15 15 16 16 15 14 15 15 13 12 12 14 15 15 11 10 9 11 13 11 10
21 21 20 19 15 15 14 15 15 14 15 15 16 16 15 14 14 13 13 13 14 13 13 15 15 14 10 8 12 11 11 11
20 21 22 21 16 17 16 15 14 14 14 15 16 15 14 15 14 14 13 12 13 14 13 13 13 12 10 8 8 10 11 11
19 19 19 19 18 19 18 17 16 16 17 17 16 15 14 15 15 15 14 13 12 12 12 12 13 12 9 7 7 9 11 11
21 22 21 20 20 20 19 19 19 20 19 17 17 17 16 15 15 15 14 14 12 12 12 12 13 13 12 11 11 10 10 11
23 23 22 21 22 22 21 21 22 22 21 20 19 18 17 17 16 16 15 14 13 12 12 12 12 12 10 10 12 14 12 17
24 24 24 23 23 23 23 24 25 24 23 22 22 21 19 19 19 15 14 12 11 10 10 10 8 8 8 7 7 8 8 19
26 26 25 26 26 25 25 27 27 26 25 24 23 22 22 21 21 21 18 14 13 12 11 9 8 7 6 7 7 7 9 21
28 28 28 28 27 25 26 27 27 26 25 25 24 23 23 22 22 21 20 20 19 14 13 12 10 8 7 6 7 11 12 19
30 30 29 29 26 25 25 25 24 24 24 24 23 23 23 23 22 21 21 20 20 18 16 14 11 10 9 8 8 9 10 18